Location: El Escondido
(32.5691°N, 116.4250°W)
Time: 23:46:43
(UTC+00:00)

ISS - Pass Details

Date: 26 June 2024
Orbit: 409 x 423 km, 51.6° (Epoch: 23 July)

Event Time Altitude Azimuth Distance (km) Brightness Sun altitude
Exits shadow 10:16:32 23° 340° (NNW) 922 -1.7 -23.9°
Drops below altitude 10° 10:18:46 10° 20° (NNE) 1,486 0.0 -23.6°
Sets 10:21:07 0° 35° (NE) 2,355 1.5 -23.3°
